KAL29 RJFF-RKSS

Flight info

Callsign KAL29
Flight time 1h 0m
Altitude 28000
Route DGC G339 BEETL Y208 INVOK Z91 PSN Y782 BITUX Z53 BASEM Y685 GUKDO GUKDO2T
Aircraft B77W/H-SDE1E2E3FGHIJ2J3J4J5M1RWXY/LB1D1

Departure

Time 2026-04-28 04:42
Airport Fukuoka Airport (RJFF)

Arrival

Time 2026-04-28 05:42
Airport Gimpo International Airport (RKSS)
Time Latitude Longitude Altitude Speed Heading
2026-04-28 04:22 33.58497 130.44567 39 ft 0 kts 241°
2026-04-28 04:30 33.58503 130.44580 40 ft 2 kts 248°
2026-04-28 04:30 33.58508 130.44599 38 ft 2 kts 254°
2026-04-28 04:30 33.58512 130.44618 38 ft 2 kts 265°
2026-04-28 04:30 33.58512 130.44638 37 ft 2 kts 279°
2026-04-28 04:31 33.58508 130.44657 38 ft 2 kts 295°
2026-04-28 04:31 33.58499 130.44674 39 ft 2 kts 310°
2026-04-28 04:31 33.58488 130.44688 39 ft 2 kts 322°
2026-04-28 04:31 33.58477 130.44697 38 ft 1 kts 328°
2026-04-28 04:32 33.58474 130.44699 38 ft 0 kts 328°
2026-04-28 04:33 33.58476 130.44697 38 ft 1 kts 329°
2026-04-28 04:33 33.58506 130.44683 40 ft 9 kts 344°
2026-04-28 04:34 33.58566 130.44677 41 ft 9 kts 356°
2026-04-28 04:34 33.58624 130.44659 42 ft 9 kts 333°
2026-04-28 04:34 33.58684 130.44621 41 ft 11 kts 332°
2026-04-28 04:34 33.58759 130.44572 38 ft 14 kts 331°
2026-04-28 04:35 33.58848 130.44513 37 ft 15 kts 330°
2026-04-28 04:35 33.58940 130.44450 36 ft 16 kts 330°
2026-04-28 04:35 33.59042 130.44383 34 ft 17 kts 332°
2026-04-28 04:35 33.59149 130.44312 35 ft 17 kts 331°
2026-04-28 04:36 33.59255 130.44241 34 ft 18 kts 330°
2026-04-28 04:36 33.59359 130.44172 34 ft 15 kts 331°
2026-04-28 04:36 33.59436 130.44121 35 ft 11 kts 331°
2026-04-28 04:36 33.59471 130.44098 34 ft 2 kts 331°
2026-04-28 04:37 33.59476 130.44095 34 ft 0 kts 331°
2026-04-28 04:38 33.59478 130.44093 34 ft 2 kts 331°
2026-04-28 04:39 33.59507 130.44077 33 ft 8 kts 338°
2026-04-28 04:39 33.59569 130.44096 32 ft 11 kts 47°
2026-04-28 04:39 33.59572 130.44147 32 ft 6 kts 125°
2026-04-28 04:39 33.59543 130.44173 34 ft 0 kts 151°
2026-04-28 04:41 33.59506 130.44198 34 ft 24 kts 151°
2026-04-28 04:41 33.59096 130.44475 32 ft 110 kts 150°
2026-04-28 04:41 33.58240 130.45054 163 ft 163 kts 153°
2026-04-28 04:42 33.57222 130.45749 907 ft 171 kts 152°
2026-04-28 04:42 33.56173 130.46456 1736 ft 179 kts 155°
2026-04-28 04:42 33.55030 130.47234 2269 ft 201 kts 153°
2026-04-28 04:42 33.53731 130.48122 2582 ft 231 kts 154°
2026-04-28 04:43 33.52277 130.49095 3221 ft 244 kts 153°
2026-04-28 04:43 33.50798 130.50130 4195 ft 247 kts 153°
2026-04-28 04:43 33.49274 130.51152 5023 ft 257 kts 154°
2026-04-28 04:43 33.47694 130.52210 5713 ft 270 kts 154°
2026-04-28 04:44 33.46023 130.53353 6470 ft 281 kts 153°
2026-04-28 04:44 33.44295 130.54526 7303 ft 285 kts 154°
2026-04-28 04:44 33.42427 130.55354 7960 ft 292 kts 177°
2026-04-28 04:44 33.40481 130.55002 8913 ft 281 kts 208°
2026-04-28 04:45 33.38944 130.53607 9841 ft 275 kts 231°
2026-04-28 04:45 33.37840 130.51754 10738 ft 276 kts 241°
2026-04-28 04:45 33.36944 130.49636 11044 ft 298 kts 256°
2026-04-28 04:45 33.36855 130.47075 11248 ft 326 kts 281°
2026-04-28 04:46 33.37823 130.44521 11596 ft 353 kts 308°
2026-04-28 04:46 33.39771 130.42685 12454 ft 363 kts 328°
2026-04-28 04:46 33.42037 130.41250 13331 ft 373 kts 329°
2026-04-28 04:46 33.44346 130.39772 14290 ft 376 kts 329°
2026-04-28 04:47 33.46810 130.38648 15232 ft 387 kts 344°
2026-04-28 04:47 33.49519 130.38459 16255 ft 394 kts 356°
2026-04-28 04:47 33.52279 130.38559 17127 ft 401 kts 356°
2026-04-28 04:47 33.55089 130.38673 18122 ft 405 kts 355°
2026-04-28 04:48 33.57887 130.38773 19001 ft 409 kts 354°
2026-04-28 04:48 33.60748 130.38849 19767 ft 414 kts 353°
2026-04-28 04:48 33.63651 130.38912 19985 ft 420 kts 353°
2026-04-28 04:48 33.66506 130.38673 19970 ft 406 kts 340°
2026-04-28 04:49 33.69104 130.37517 19973 ft 392 kts 324°
2026-04-28 04:49 33.71300 130.35666 19980 ft 382 kts 316°
2026-04-28 04:49 33.73376 130.33662 19982 ft 384 kts 316°
2026-04-28 04:49 33.75460 130.31637 19985 ft 386 kts 316°
2026-04-28 04:50 33.77554 130.29605 19988 ft 387 kts 316°
2026-04-28 04:50 33.79653 130.27579 19993 ft 387 kts 316°
2026-04-28 04:50 33.81760 130.25556 19987 ft 387 kts 316°
2026-04-28 04:50 33.83868 130.23538 19998 ft 387 kts 316°
2026-04-28 04:51 33.85986 130.21513 20669 ft 390 kts 316°
2026-04-28 04:51 33.88078 130.19516 21694 ft 388 kts 315°
2026-04-28 04:51 33.90193 130.17496 22711 ft 388 kts 315°
2026-04-28 04:51 33.92313 130.15471 23594 ft 390 kts 314°
2026-04-28 04:52 33.94446 130.13429 24269 ft 394 kts 314°
2026-04-28 04:52 33.96602 130.11363 24953 ft 397 kts 314°
2026-04-28 04:52 33.98769 130.09287 25678 ft 398 kts 314°
2026-04-28 04:52 34.00932 130.07218 26608 ft 394 kts 314°
2026-04-28 04:53 34.03069 130.05174 27530 ft 391 kts 314°
2026-04-28 04:53 34.05199 130.03132 28003 ft 389 kts 314°
2026-04-28 04:53 34.07314 130.01102 27993 ft 388 kts 314°
2026-04-28 04:53 34.09421 129.99077 27997 ft 387 kts 314°
2026-04-28 04:54 34.11526 129.97051 27999 ft 387 kts 314°
2026-04-28 04:54 34.15712 129.93020 28003 ft 387 kts 313°
2026-04-28 04:54 34.17816 129.90993 27999 ft 387 kts 313°
2026-04-28 04:55 34.19918 129.88966 28001 ft 387 kts 313°
2026-04-28 04:55 34.24128 129.84904 27999 ft 387 kts 313°
2026-04-28 04:55 34.26231 129.82874 27996 ft 387 kts 313°
2026-04-28 04:56 34.28340 129.80851 27994 ft 387 kts 314°
2026-04-28 04:56 34.30452 129.78838 27998 ft 387 kts 314°
2026-04-28 04:56 34.31854 129.77505 27992 ft 387 kts 314°
2026-04-28 04:56 34.33966 129.75495 27989 ft 386 kts 314°
2026-04-28 04:57 34.36082 129.73478 27989 ft 386 kts 314°
2026-04-28 04:57 34.38191 129.71465 27991 ft 386 kts 314°
2026-04-28 04:57 34.40298 129.69452 27988 ft 386 kts 314°
2026-04-28 04:57 34.42405 129.67437 27986 ft 385 kts 314°
2026-04-28 04:58 34.44504 129.65427 27985 ft 385 kts 314°
2026-04-28 04:58 34.46608 129.63412 27992 ft 385 kts 314°
2026-04-28 04:58 34.48707 129.61399 27985 ft 384 kts 314°
2026-04-28 04:58 34.50803 129.59388 27976 ft 384 kts 314°
2026-04-28 04:59 34.52900 129.57375 27989 ft 384 kts 314°
2026-04-28 04:59 34.54992 129.55365 27983 ft 384 kts 314°
2026-04-28 04:59 34.57086 129.53352 27988 ft 384 kts 314°
2026-04-28 04:59 34.59180 129.51338 27983 ft 384 kts 314°
2026-04-28 05:00 34.61271 129.49326 27985 ft 384 kts 314°
2026-04-28 05:00 34.63335 129.47337 27992 ft 384 kts 313°
2026-04-28 05:00 34.65450 129.45299 27992 ft 384 kts 314°
2026-04-28 05:00 34.67511 129.43310 27988 ft 384 kts 314°
2026-04-28 05:01 34.69606 129.41287 27988 ft 384 kts 314°
2026-04-28 05:01 34.71700 129.39266 27981 ft 384 kts 314°
2026-04-28 05:01 34.73795 129.37241 27983 ft 384 kts 314°
2026-04-28 05:01 34.75884 129.35222 27976 ft 383 kts 313°
2026-04-28 05:02 34.77974 129.33200 27979 ft 383 kts 313°
2026-04-28 05:02 34.80058 129.31183 27982 ft 383 kts 314°
2026-04-28 05:02 34.82150 129.29163 27980 ft 383 kts 314°
2026-04-28 05:02 34.84234 129.27151 27979 ft 382 kts 314°
2026-04-28 05:03 34.86294 129.25160 27980 ft 382 kts 314°
2026-04-28 05:03 34.88378 129.23145 27979 ft 382 kts 314°
2026-04-28 05:03 34.90461 129.21129 27975 ft 382 kts 314°
2026-04-28 05:03 34.92541 129.19114 27970 ft 382 kts 314°
2026-04-28 05:04 34.94625 129.17093 27964 ft 382 kts 313°
2026-04-28 05:04 34.96709 129.15072 27960 ft 382 kts 313°
2026-04-28 05:04 34.98790 129.13052 27965 ft 382 kts 313°
2026-04-28 05:04 35.00868 129.11032 27958 ft 382 kts 313°
2026-04-28 05:05 35.02921 129.09037 27953 ft 382 kts 313°
2026-04-28 05:05 35.05003 129.07011 27949 ft 382 kts 313°
2026-04-28 05:05 35.07083 129.04986 27946 ft 382 kts 313°
2026-04-28 05:05 35.09159 129.02964 27949 ft 382 kts 313°
2026-04-28 05:06 35.11291 129.00999 27933 ft 386 kts 317°
2026-04-28 05:06 35.13566 128.99231 27936 ft 389 kts 321°
2026-04-28 05:06 35.15988 128.97669 27942 ft 394 kts 324°
2026-04-28 05:06 35.18461 128.96213 27949 ft 395 kts 325°
2026-04-28 05:07 35.20946 128.94763 27945 ft 395 kts 325°
2026-04-28 05:07 35.23425 128.93316 27939 ft 395 kts 325°
2026-04-28 05:07 35.25914 128.91858 27947 ft 395 kts 324°
2026-04-28 05:07 35.28392 128.90398 27951 ft 395 kts 324°
2026-04-28 05:08 35.30841 128.88953 27936 ft 395 kts 324°
2026-04-28 05:08 35.33316 128.87491 27939 ft 394 kts 324°
2026-04-28 05:08 35.35779 128.86033 27978 ft 393 kts 324°
2026-04-28 05:08 35.38250 128.84563 27936 ft 394 kts 324°
2026-04-28 05:09 35.40724 128.83092 27939 ft 395 kts 324°
2026-04-28 05:09 35.43199 128.81622 27944 ft 394 kts 324°
2026-04-28 05:09 35.45679 128.80151 27958 ft 394 kts 324°
2026-04-28 05:09 35.48147 128.78684 27960 ft 395 kts 324°
2026-04-28 05:10 35.50590 128.77230 27960 ft 395 kts 324°
2026-04-28 05:10 35.53061 128.75761 27961 ft 394 kts 324°
2026-04-28 05:10 35.55532 128.74294 27952 ft 393 kts 324°
2026-04-28 05:10 35.57994 128.72830 27960 ft 393 kts 324°
2026-04-28 05:11 35.60456 128.71366 27958 ft 393 kts 324°
2026-04-28 05:11 35.62919 128.69899 27932 ft 393 kts 324°
2026-04-28 05:11 35.65381 128.68432 27939 ft 394 kts 324°
2026-04-28 05:11 35.67846 128.66961 27931 ft 394 kts 324°
2026-04-28 05:12 35.70311 128.65490 27930 ft 394 kts 324°
2026-04-28 05:12 35.72774 128.64020 27932 ft 394 kts 324°
2026-04-28 05:12 35.75240 128.62547 27923 ft 394 kts 324°
2026-04-28 05:12 35.77693 128.61061 27919 ft 391 kts 322°
2026-04-28 05:13 35.79998 128.59340 27915 ft 384 kts 317°
2026-04-28 05:13 35.82157 128.57431 27917 ft 381 kts 314°
2026-04-28 05:13 35.84192 128.55362 27921 ft 376 kts 310°
2026-04-28 05:13 35.86091 128.53142 27923 ft 376 kts 309°
2026-04-28 05:14 35.87971 128.50895 27925 ft 376 kts 308°
2026-04-28 05:14 35.89821 128.48672 27926 ft 377 kts 308°
2026-04-28 05:14 35.91698 128.46417 27934 ft 378 kts 308°
2026-04-28 05:14 35.93583 128.44158 27932 ft 378 kts 309°
2026-04-28 05:15 35.95473 128.41899 27943 ft 378 kts 309°
2026-04-28 05:15 35.97366 128.39638 27944 ft 379 kts 309°
2026-04-28 05:15 35.99261 128.37376 27940 ft 379 kts 309°
2026-04-28 05:15 36.01151 128.35120 27950 ft 378 kts 309°
2026-04-28 05:16 36.03039 128.32864 27943 ft 377 kts 309°
2026-04-28 05:16 36.04923 128.30613 27950 ft 376 kts 308°
2026-04-28 05:16 36.06802 128.28366 27961 ft 375 kts 308°
2026-04-28 05:17 36.10553 128.23868 27966 ft 376 kts 308°
2026-04-28 05:17 36.12432 128.21613 27963 ft 376 kts 308°
2026-04-28 05:17 36.14310 128.19359 27969 ft 376 kts 308°
2026-04-28 05:17 36.16194 128.17096 27973 ft 377 kts 308°
2026-04-28 05:18 36.18051 128.14865 27977 ft 377 kts 308°
2026-04-28 05:18 36.19937 128.12597 27960 ft 378 kts 308°
2026-04-28 05:18 36.21824 128.10327 27975 ft 378 kts 308°
2026-04-28 05:18 36.23712 128.08053 27973 ft 378 kts 308°
2026-04-28 05:19 36.25697 128.05908 27966 ft 385 kts 316°
2026-04-28 05:19 36.28063 128.04247 27974 ft 396 kts 324°
2026-04-28 05:19 36.30624 128.02926 27984 ft 404 kts 330°
2026-04-28 05:19 36.33398 128.02074 27976 ft 420 kts 340°
2026-04-28 05:20 36.36323 128.01664 27965 ft 423 kts 342°
2026-04-28 05:20 36.39223 128.01325 27976 ft 423 kts 342°
2026-04-28 05:20 36.42153 128.00982 27958 ft 423 kts 342°
2026-04-28 05:20 36.45072 128.00616 27963 ft 421 kts 342°
2026-04-28 05:21 36.47981 128.00227 27973 ft 419 kts 341°
2026-04-28 05:21 36.50881 127.99826 27964 ft 419 kts 341°
2026-04-28 05:21 36.53776 127.99424 27956 ft 416 kts 341°
2026-04-28 05:21 36.56615 127.99034 27860 ft 408 kts 341°
2026-04-28 05:22 36.59425 127.98657 27457 ft 404 kts 342°
2026-04-28 05:22 36.62209 127.98289 26995 ft 400 kts 342°
2026-04-28 05:22 36.64964 127.97922 26486 ft 397 kts 342°
2026-04-28 05:22 36.67703 127.97554 25972 ft 394 kts 342°
2026-04-28 05:23 36.70426 127.97186 25472 ft 392 kts 342°
2026-04-28 05:23 36.73138 127.96819 24956 ft 391 kts 342°
2026-04-28 05:23 36.75830 127.96456 24468 ft 389 kts 343°
2026-04-28 05:23 36.78502 127.96094 23953 ft 390 kts 343°
2026-04-28 05:24 36.81188 127.95705 23410 ft 383 kts 339°
2026-04-28 05:24 36.83617 127.94662 22851 ft 360 kts 321°
2026-04-28 05:24 36.85603 127.92883 22276 ft 346 kts 309°
2026-04-28 05:24 36.87137 127.90632 21753 ft 335 kts 298°
2026-04-28 05:25 36.88442 127.88233 21230 ft 333 kts 298°
2026-04-28 05:25 36.89739 127.85837 20723 ft 333 kts 298°
2026-04-28 05:25 36.91052 127.83454 20202 ft 333 kts 299°
2026-04-28 05:25 36.92379 127.81072 19692 ft 333 kts 300°
2026-04-28 05:26 36.93708 127.78699 19188 ft 333 kts 300°
2026-04-28 05:26 36.95026 127.76363 18696 ft 333 kts 300°
2026-04-28 05:26 36.96368 127.73991 18169 ft 334 kts 301°
2026-04-28 05:26 36.97711 127.71611 17597 ft 334 kts 301°
2026-04-28 05:27 36.99050 127.69241 17051 ft 334 kts 301°
2026-04-28 05:27 37.00388 127.66868 16540 ft 333 kts 301°
2026-04-28 05:27 37.01811 127.64608 16009 ft 333 kts 311°
2026-04-28 05:27 37.03701 127.62895 15638 ft 339 kts 326°
2026-04-28 05:28 37.05848 127.61618 15283 ft 346 kts 330°
2026-04-28 05:28 37.08062 127.60375 14920 ft 350 kts 330°
2026-04-28 05:28 37.10280 127.59115 14545 ft 350 kts 330°
2026-04-28 05:28 37.12458 127.57851 14167 ft 349 kts 330°
2026-04-28 05:29 37.14652 127.56563 13786 ft 347 kts 330°
2026-04-28 05:29 37.16739 127.55144 13348 ft 335 kts 319°
2026-04-28 05:29 37.18316 127.53076 12992 ft 325 kts 302°
2026-04-28 05:29 37.19580 127.50737 12654 ft 322 kts 301°
2026-04-28 05:30 37.20839 127.48416 12296 ft 321 kts 301°
2026-04-28 05:30 37.22107 127.46114 11939 ft 320 kts 301°
2026-04-28 05:30 37.23374 127.43827 11626 ft 316 kts 301°
2026-04-28 05:30 37.24623 127.41575 11273 ft 313 kts 301°
2026-04-28 05:31 37.25860 127.39346 10933 ft 309 kts 301°
2026-04-28 05:31 37.27029 127.37126 10589 ft 297 kts 294°
2026-04-28 05:31 37.27594 127.34691 10308 ft 288 kts 276°
2026-04-28 05:31 37.27588 127.32238 10205 ft 275 kts 263°
2026-04-28 05:32 37.27259 127.29907 9993 ft 269 kts 259°
2026-04-28 05:32 37.26887 127.27617 9674 ft 267 kts 259°
2026-04-28 05:32 37.26531 127.25342 9331 ft 266 kts 260°
2026-04-28 05:32 37.26189 127.23069 8979 ft 265 kts 260°
2026-04-28 05:33 37.25851 127.20796 8643 ft 265 kts 260°
2026-04-28 05:33 37.25662 127.18569 8283 ft 259 kts 275°
2026-04-28 05:33 37.26203 127.16409 7893 ft 261 kts 296°
2026-04-28 05:33 37.27272 127.14555 7505 ft 266 kts 311°
2026-04-28 05:34 37.28635 127.12963 7121 ft 269 kts 315°
2026-04-28 05:34 37.30037 127.11419 6786 ft 269 kts 316°
2026-04-28 05:34 37.31420 127.09874 6595 ft 262 kts 314°
2026-04-28 05:34 37.32720 127.08294 6216 ft 263 kts 313°
2026-04-28 05:35 37.34056 127.06662 5540 ft 267 kts 314°
2026-04-28 05:35 37.35356 127.05055 5161 ft 255 kts 313°
2026-04-28 05:35 37.36586 127.03523 4848 ft 243 kts 313°
2026-04-28 05:35 37.37754 127.02061 4540 ft 231 kts 314°
2026-04-28 05:36 37.38865 127.00670 4267 ft 220 kts 313°
2026-04-28 05:36 37.39918 126.99352 4075 ft 205 kts 313°
2026-04-28 05:36 37.40897 126.98125 3937 ft 202 kts 313°
2026-04-28 05:36 37.41897 126.96870 3689 ft 195 kts 313°
2026-04-28 05:37 37.42805 126.95735 3452 ft 178 kts 312°
2026-04-28 05:37 37.43645 126.94680 3210 ft 164 kts 312°
2026-04-28 05:37 37.44405 126.93728 2995 ft 144 kts 311°
2026-04-28 05:37 37.45103 126.92850 2826 ft 143 kts 311°
2026-04-28 05:38 37.45803 126.91978 2588 ft 139 kts 312°
2026-04-28 05:38 37.46484 126.91121 2425 ft 138 kts 311°
2026-04-28 05:38 37.47173 126.90252 2235 ft 141 kts 311°
2026-04-28 05:38 37.47861 126.89388 2028 ft 138 kts 311°
2026-04-28 05:39 37.48548 126.88527 1866 ft 141 kts 312°
2026-04-28 05:39 37.49239 126.87660 1663 ft 138 kts 310°
2026-04-28 05:39 37.49903 126.86827 1497 ft 136 kts 310°
2026-04-28 05:39 37.50584 126.85966 1318 ft 140 kts 311°
2026-04-28 05:40 37.51266 126.85117 1082 ft 136 kts 310°
2026-04-28 05:40 37.51943 126.84266 908 ft 138 kts 311°
2026-04-28 05:40 37.52626 126.83404 710 ft 139 kts 312°
2026-04-28 05:40 37.53309 126.82556 534 ft 135 kts 310°
2026-04-28 05:41 37.53963 126.81730 361 ft 133 kts 311°
2026-04-28 05:41 37.54620 126.80901 160 ft 132 kts 311°
2026-04-28 05:41 37.55235 126.80126 49 ft 110 kts 314°
2026-04-28 05:41 37.55646 126.79615 49 ft 58 kts 315°
2026-04-28 05:42 37.55866 126.79337 51 ft 42 kts 315°
2026-04-28 05:42 37.56071 126.79100 46 ft 39 kts 328°
2026-04-28 05:42 37.56271 126.78980 51 ft 13 kts 349°
2026-04-28 05:42 37.56323 126.79045 47 ft 13 kts 99°
2026-04-28 05:43 37.56270 126.79138 48 ft 13 kts 134°
2026-04-28 05:43 37.56205 126.79220 47 ft 12 kts 129°
2026-04-28 05:43 37.56221 126.79313 48 ft 12 kts 49°
2026-04-28 05:43 37.56280 126.79390 50 ft 13 kts 46°
2026-04-28 05:44 37.56344 126.79470 47 ft 13 kts 42°
2026-04-28 05:44 37.56413 126.79552 46 ft 13 kts 44°
2026-04-28 05:44 37.56478 126.79635 50 ft 14 kts 46°
2026-04-28 05:44 37.56544 126.79720 48 ft 13 kts 46°
2026-04-28 05:45 37.56579 126.79793 45 ft 8 kts 96°
2026-04-28 05:45 37.56544 126.79849 47 ft 8 kts 137°
2026-04-28 05:45 37.56535 126.79860 49 ft 0 kts 137°